Debrecen, Hungary

2:28 PM CET on February 22, 2017 (GMT +0100)
Debrecen

Weather History for LHDC - October, 2011

Change the Weather History Date:

Sunday, October 23, 2011

  Actual Average Record
Temperature  
Mean Temperature 48 °F -  
Max Temperature 51 °F 50 °F - ()
Min Temperature 45 °F 36 °F - ()
Degree Days  
Heating Degree Days 17    
Moisture  
Dew Point 47 °F    
Average Humidity 93    
Maximum Humidity 100    
Minimum Humidity 85    
Precipitation  
Precipitation 0.02 in 0.05 in - ()
Sea Level Pressure  
Sea Level Pressure 30.28 in    
Wind  
Wind Speed 4 mph ()    
Max Wind Speed 9 mph    
Max Gust Speed -    
Visibility 3.1 miles    
Events Rain    
T = Trace of Precipitation, MM = Missing Value Source: Averaged Metar Reports

Daily Weather History Graph

Daily Weather History Graph

Search for Another Location

Airport or City:

Trip Planner

Search our weather history database for the weather conditions in past years. The results will help you decide how hot, cold, wet, or windy it might be!

Date:

Astronomy

Oct. 23, 2011 Rise Set
Actual Time 7:03 AM CEST 5:32 PM CEST
Civil Twilight 6:31 AM CEST 6:03 PM CEST
Nautical Twilight 5:55 AM CEST 6:39 PM CEST
Astronomical Twilight 5:20 AM CEST 7:14 PM CEST
Moon 2:32 AM CEST (10/23) 3:25 PM CEST (10/23)
Length of Visible Light 11h 31m
Length of Day
10h 29m
Waning Crescent, 17% of the Moon is Illuminated
Oct 23
Waning Crescent
Oct 26
New
Nov 2
First Quarter
Nov 10
Full
Nov 18
Last Quarter

Hourly Weather History & Observations

Time (CEST) Temp. Windchill Dew Point Humidity Pressure Visibility Wind Dir Wind Speed Gust Speed Precip Events Conditions
12:45 AM 46.4 °F - 44.6 °F 93% 30.30 in 6.2 mi NE 2.3 mph - N/A Rain Light Rain
1:45 AM 46.4 °F - 44.6 °F 93% 30.30 in 6.2 mi NE 2.3 mph - N/A Rain Light Rain
2:00 AM 47 °F - 45 °F 90% 30.31 in 6 mi NE 2.2 mph - - Rain Light Rain
2:45 AM 46.4 °F 43.5 °F 44.6 °F 93% 30.30 in 5.0 mi NE 5.8 mph - N/A Rain Light Rain
3:45 AM 46.4 °F 42.4 °F 44.6 °F 93% 30.27 in 6.2 mi NE 8.1 mph - N/A   Overcast
4:45 AM 46.4 °F 43.5 °F 44.6 °F 93% 30.27 in 5.0 mi ENE 5.8 mph - N/A   Overcast
6:15 AM 46.4 °F 44.3 °F 44.6 °F 93% 30.27 in 6.2 mi ENE 4.6 mph - N/A Rain Light Rain
6:45 AM 46.4 °F 42.9 °F 44.6 °F 93% 30.27 in 4.3 mi NE 6.9 mph - N/A Rain Light Rain
7:05 AM - - - N/A% - 4.3 mi NE 8.1 mph - N/A   Overcast
7:15 AM 44.6 °F 40.7 °F 44.6 °F 100% 30.27 in 3.7 mi NE 6.9 mph - N/A Rain Light Rain
7:45 AM 46.4 °F 43.5 °F 44.6 °F 93% 30.30 in 3.7 mi East 5.8 mph - N/A Rain Light Rain
8:00 AM 46 °F - 44 °F 91% 30.30 in 4 mi East 4.5 mph - - Rain Light Rain
8:15 AM 46.4 °F 43.5 °F 44.6 °F 93% 30.30 in 2.5 mi ENE 5.8 mph - N/A Rain Light Rain
8:45 AM 46.4 °F 42.9 °F 44.6 °F 93% 30.30 in 2.5 mi ENE 6.9 mph - N/A Rain Light Rain
9:15 AM 46.4 °F 42.9 °F 44.6 °F 93% 30.30 in 2.5 mi ENE 6.9 mph - N/A Rain Light Rain
9:45 AM 46.4 °F 42.4 °F 44.6 °F 93% 30.30 in 2.5 mi ENE 8.1 mph - N/A Rain Light Rain
10:00 AM - - - N/A% - 3.1 mi ENE 5.8 mph - N/A   Overcast
10:15 AM 46.4 °F 41.9 °F 44.6 °F 93% 30.30 in 2.5 mi ENE 9.2 mph - N/A Rain Light Rain
10:45 AM 48.2 °F - 44.6 °F 87% 30.30 in 2.5 mi ENE 8.1 mph - N/A   Overcast
11:15 AM 48.2 °F - 46.4 °F 93% 30.30 in 2.5 mi East 4.6 mph - N/A   Overcast
11:45 AM 48.2 °F - 46.4 °F 93% 30.30 in 1.9 mi ENE 4.6 mph - N/A   Overcast
12:15 PM 48.2 °F - 46.4 °F 93% 30.30 in 1.9 mi ENE 4.6 mph - N/A   Overcast
12:45 PM 50.0 °F - 48.2 °F 94% 30.30 in 1.9 mi ENE 5.8 mph - N/A Rain Light Rain
1:00 PM - - - N/A% - 3.1 mi ENE 5.8 mph - N/A   Overcast
1:15 PM 50.0 °F - 48.2 °F 94% 30.30 in 1.9 mi NE 5.8 mph - N/A Rain Light Rain
1:45 PM 50.0 °F - 48.2 °F 94% 30.30 in 1.9 mi NE 5.8 mph - N/A Rain Light Rain
2:00 PM 50 °F - 48 °F 92% 30.30 in 2 mi NE 6.7 mph - - Rain Light Rain
2:15 PM 50.0 °F - 48.2 °F 94% 30.27 in 1.9 mi NE 4.6 mph - N/A Rain Light Rain
2:45 PM 50.0 °F - 48.2 °F 94% 30.27 in 1.9 mi NE 3.5 mph - N/A Rain Light Rain
3:15 PM 51.8 °F - 50.0 °F 94% 30.27 in 1.9 mi North 2.3 mph - N/A   Overcast
3:45 PM 51.8 °F - 50.0 °F 94% 30.27 in 1.9 mi North 2.3 mph - N/A   Overcast
4:15 PM 51.8 °F - 50.0 °F 94% 30.27 in 1.9 mi NNW 2.3 mph - N/A   Mostly Cloudy
4:45 PM 51.8 °F - 50.0 °F 94% 30.27 in 1.9 mi Calm Calm - N/A   Mostly Cloudy
5:15 PM 51.8 °F - 50.0 °F 94% 30.27 in 1.9 mi NNE 4.6 mph - N/A   Mostly Cloudy
5:45 PM 51.8 °F - 50.0 °F 94% 30.27 in 1.6 mi NNE 4.6 mph - N/A   Mostly Cloudy
6:15 PM 51.8 °F - 48.2 °F 88% 30.27 in 1.9 mi ESE 1.2 mph - N/A   Mostly Cloudy
6:45 PM 51.8 °F - 48.2 °F 88% 30.27 in 1.9 mi NNE 4.6 mph - N/A   Mostly Cloudy
7:15 PM 50.0 °F - 48.2 °F 94% 30.27 in 1.9 mi NNE 3.5 mph - N/A   Mostly Cloudy
7:45 PM 50.0 °F - 48.2 °F 94% 30.27 in 2.5 mi NNW 2.3 mph - N/A   Mostly Cloudy
8:00 PM 51 °F - 48 °F 85% 30.27 in 2 mi NNW 2.2 mph - -   Mist
8:15 PM 50.0 °F - 48.2 °F 94% 30.27 in 2.5 mi Calm Calm - N/A   Mostly Cloudy
9:15 PM 48.2 °F - 46.4 °F 93% 30.27 in 6.2 mi ENE 3.5 mph - N/A   Mostly Cloudy
9:45 PM 48.2 °F - 46.4 °F 93% 30.27 in 2.5 mi NE 5.8 mph - N/A   Mostly Cloudy
10:45 PM 48.2 °F - 46.4 °F 93% 30.27 in 2.5 mi East 3.5 mph - N/A   Mostly Cloudy
11:45 PM 48.2 °F - 46.4 °F 93% 30.24 in 3.1 mi NNE 5.8 mph - N/A   Mostly Cloudy